iso_date,epoch_date,Year,Hour,Min,DOY,POS_DOY,Lat,Lon,BP,Ts,Ta,has_bp,has_ts,has_ta,BuoyID,Buoy_Type,Buoy_Owner,Logistics,Hemisphere
2021-08-17T09:26:03Z,1629192364,2021,9,26,229.3931,229.3931,69.35551,-50.94937,-999.00,-999.00,-999.0,no,no,no,4434878,SPIT,USIABP,ICE-PPR<br>DiskoBay,North
2021-08-17T09:55:00Z,1629194100,2021,9,55,229.4132,229.4132,69.35561,-50.94891,-999.00,-999.00,-999.0,no,no,no,4434878,SPIT,USIABP,ICE-PPR<br>DiskoBay,North
2021-08-17T10:25:58Z,1629195958,2021,10,26,229.4347,229.4347,69.35722,-51.13937,-999.00,-999.00,-999.0,no,no,no,4434878,SPIT,USIABP,ICE-PPR<br>DiskoBay,North
2021-08-17T11:25:00Z,1629199500,2021,11,25,229.4757,229.4757,69.3759,-51.39155,-999.00,-999.00,-999.0,no,no,no,4434878,SPIT,USIABP,ICE-PPR<br>DiskoBay,North
2021-08-17T11:54:57Z,1629201298,2021,11,55,229.4965,229.4965,69.38427,-51.39687,-999.00,-999.00,-999.0,no,no,no,4434878,SPIT,USIABP,ICE-PPR<br>DiskoBay,North
2021-08-17T12:25:03Z,1629203103,2021,12,25,229.5174,229.5174,69.40534,-51.45755,-999.00,-999.00,-999.0,no,no,no,4434878,SPIT,USIABP,ICE-PPR<br>DiskoBay,North
2021-08-17T12:55:00Z,1629204900,2021,12,55,229.5382,229.5382,69.40552,-51.46396,-999.00,-999.00,-999.0,no,no,no,4434878,SPIT,USIABP,ICE-PPR<br>DiskoBay,North
2021-08-17T13:24:57Z,1629206698,2021,13,25,229.559,229.559,69.32662,-51.31904,-999.00,-999.00,-999.0,no,no,no,4434878,SPIT,USIABP,ICE-PPR<br>DiskoBay,North
2021-08-17T13:55:03Z,1629208503,2021,13,55,229.5799,229.5799,69.23924,-51.15982,-999.00,-999.00,-999.0,no,no,no,4434878,SPIT,USIABP,ICE-PPR<br>DiskoBay,North
2021-08-17T14:25:00Z,1629210300,2021,14,25,229.6007,229.6007,69.22853,-51.15649,-999.00,-999.00,-999.0,no,no,no,4434878,SPIT,USIABP,ICE-PPR<br>DiskoBay,North
2021-08-17T14:53:57Z,1629212037,2021,14,54,229.6208,229.6208,69.22897,-51.14481,-999.00,-999.00,-999.0,no,no,no,4434878,SPIT,USIABP,ICE-PPR<br>DiskoBay,North
2021-08-17T15:54:00Z,1629215640,2021,15,54,229.6625,229.6625,69.24097,-51.15192,-999.00,-999.00,-999.0,no,no,no,4434878,SPIT,USIABP,ICE-PPR<br>DiskoBay,North
2021-08-17T16:23:57Z,1629217437,2021,16,24,229.6833,229.6833,69.251,-51.15768,-999.00,-999.00,-999.0,no,no,no,4434878,SPIT,USIABP,ICE-PPR<br>DiskoBay,North
2021-08-17T16:54:02Z,1629219243,2021,16,54,229.7042,229.7042,69.2329,-51.15064,-999.00,-999.00,-999.0,no,no,no,4434878,SPIT,USIABP,ICE-PPR<br>DiskoBay,North
2021-08-17T17:24:00Z,1629221040,2021,17,24,229.725,229.725,69.2399,-51.15433,-999.00,-999.00,-999.0,no,no,no,4434878,SPIT,USIABP,ICE-PPR<br>DiskoBay,North
2021-08-17T17:52:56Z,1629222777,2021,17,53,229.7451,229.7451,69.245,-51.15427,-999.00,-999.00,-999.0,no,no,no,4434878,SPIT,USIABP,ICE-PPR<br>DiskoBay,North
2021-08-17T18:23:02Z,1629224582,2021,18,23,229.766,229.766,69.2919,-51.12659,-999.00,-999.00,-999.0,no,no,no,4434878,SPIT,USIABP,ICE-PPR<br>DiskoBay,North
2021-08-17T19:53:02Z,1629229982,2021,19,53,229.8285,229.8285,69.35621,-50.94858,-999.00,-999.00,-999.0,no,no,no,4434878,SPIT,USIABP,ICE-PPR<br>DiskoBay,North
2021-08-17T20:22:59Z,1629231780,2021,20,23,229.8493,229.8493,69.35601,-50.94858,-999.00,-999.00,-999.0,no,no,no,4434878,SPIT,USIABP,ICE-PPR<br>DiskoBay,North
2021-08-17T20:52:56Z,1629233577,2021,20,53,229.8701,229.8701,69.35601,-50.94858,-999.00,-999.00,-999.0,no,no,no,4434878,SPIT,USIABP,ICE-PPR<br>DiskoBay,North
2021-08-17T21:23:02Z,1629235382,2021,21,23,229.891,229.891,69.35545,-50.9495,-999.00,-999.00,-999.0,no,no,no,4434878,SPIT,USIABP,ICE-PPR<br>DiskoBay,North
2021-08-17T21:52:59Z,1629237180,2021,21,53,229.9118,229.9118,69.35542,-50.95001,-999.00,-999.00,-999.0,no,no,no,4434878,SPIT,USIABP,ICE-PPR<br>DiskoBay,North
2021-08-18T01:52:01Z,1629251522,2021,1,52,230.0778,230.0778,69.35663,-50.94998,-999.00,-999.00,-999.0,no,no,no,4434878,SPIT,USIABP,ICE-PPR<br>DiskoBay,North
2021-08-18T02:21:59Z,1629253319,2021,2,22,230.0986,230.0986,69.35646,-50.95178,-999.00,-999.00,-999.0,no,no,no,4434878,SPIT,USIABP,ICE-PPR<br>DiskoBay,North
2021-08-18T02:51:56Z,1629255116,2021,2,52,230.1194,230.1194,69.35616,-50.95169,-999.00,-999.00,-999.0,no,no,no,4434878,SPIT,USIABP,ICE-PPR<br>DiskoBay,North
2021-08-18T03:22:01Z,1629256922,2021,3,22,230.1403,230.1403,69.35606,-50.95129,-999.00,-999.00,-999.0,no,no,no,4434878,SPIT,USIABP,ICE-PPR<br>DiskoBay,North
2021-08-18T03:51:59Z,1629258719,2021,3,52,230.1611,230.1611,69.35611,-50.95166,-999.00,-999.00,-999.0,no,no,no,4434878,SPIT,USIABP,ICE-PPR<br>DiskoBay,North
2021-08-18T04:21:56Z,1629260516,2021,4,22,230.1819,230.1819,69.3559,-50.95084,-999.00,-999.00,-999.0,no,no,no,4434878,SPIT,USIABP,ICE-PPR<br>DiskoBay,North
2021-08-18T04:52:01Z,1629262322,2021,4,52,230.2028,230.2028,69.35581,-50.94934,-999.00,-999.00,-999.0,no,no,no,4434878,SPIT,USIABP,ICE-PPR<br>DiskoBay,North
2021-08-18T05:20:58Z,1629264059,2021,5,21,230.2229,230.2229,69.35606,-50.94932,-999.00,-999.00,-999.0,no,no,no,4434878,SPIT,USIABP,ICE-PPR<br>DiskoBay,North
2021-08-18T05:51:04Z,1629265864,2021,5,51,230.2438,230.2438,69.35589,-50.95001,-999.00,-999.00,-999.0,no,no,no,4434878,SPIT,USIABP,ICE-PPR<br>DiskoBay,North
2021-08-18T06:22:01Z,1629267722,2021,6,22,230.2653,230.2653,69.35571,-50.95081,-999.00,-999.00,-999.0,no,no,no,4434878,SPIT,USIABP,ICE-PPR<br>DiskoBay,North
2021-08-18T06:50:58Z,1629269459,2021,6,51,230.2854,230.2854,69.3559,-50.95062,-999.00,-999.00,-999.0,no,no,no,4434878,SPIT,USIABP,ICE-PPR<br>DiskoBay,North
2021-08-18T07:20:55Z,1629271256,2021,7,21,230.3062,230.3062,69.35603,-50.95122,-999.00,-999.00,-999.0,no,no,no,4434878,SPIT,USIABP,ICE-PPR<br>DiskoBay,North
2021-08-18T07:51:01Z,1629273061,2021,7,51,230.3271,230.3271,69.3559,-50.95096,-999.00,-999.00,-999.0,no,no,no,4434878,SPIT,USIABP,ICE-PPR<br>DiskoBay,North
2021-08-18T08:20:58Z,1629274859,2021,8,21,230.3479,230.3479,69.3559,-50.95016,-999.00,-999.00,-999.0,no,no,no,4434878,SPIT,USIABP,ICE-PPR<br>DiskoBay,North
2021-08-18T10:50:00Z,1629283801,2021,10,50,230.4514,230.4514,69.72295,-51.5141,-999.00,-999.00,-999.0,no,no,no,4434878,SPIT,USIABP,ICE-PPR<br>DiskoBay,North
2021-08-18T11:20:58Z,1629285659,2021,11,21,230.4729,230.4729,69.80148,-51.49335,-999.00,-999.00,-999.0,no,no,no,4434878,SPIT,USIABP,ICE-PPR<br>DiskoBay,North
2021-08-18T11:50:03Z,1629287404,2021,11,50,230.4931,230.4931,69.80611,-51.49118,-999.00,-999.00,-999.0,no,no,no,4434878,SPIT,USIABP,ICE-PPR<br>DiskoBay,North
2021-08-18T13:50:00Z,1629294601,2021,13,50,230.5764,230.5764,69.87688,-51.58535,-999.00,-999.00,-999.0,no,no,no,4434878,SPIT,USIABP,ICE-PPR<br>DiskoBay,North
2021-08-18T14:19:58Z,1629296398,2021,14,20,230.5972,230.5972,69.92915,-51.60011,-999.00,-999.00,-999.0,no,no,no,4434878,SPIT,USIABP,ICE-PPR<br>DiskoBay,North
2021-08-18T14:50:03Z,1629298204,2021,14,50,230.6181,230.6181,69.94159,-51.64706,-999.00,-999.00,-999.0,no,no,no,4434878,SPIT,USIABP,ICE-PPR<br>DiskoBay,North
2021-08-18T15:49:58Z,1629301798,2021,15,50,230.6597,230.6597,69.95036,-51.58618,-999.00,-999.00,-999.0,no,no,no,4434878,SPIT,USIABP,ICE-PPR<br>DiskoBay,North
2021-08-18T16:20:03Z,1629303604,2021,16,20,230.6806,230.6806,69.9421,-51.5867,-999.00,-999.00,-999.0,no,no,no,4434878,SPIT,USIABP,ICE-PPR<br>DiskoBay,North
2021-08-18T16:50:00Z,1629305401,2021,16,50,230.7014,230.7014,69.94047,-51.61197,-999.00,-999.00,-999.0,no,no,no,4434878,SPIT,USIABP,ICE-PPR<br>DiskoBay,North
2021-08-18T17:19:58Z,1629307198,2021,17,20,230.7222,230.7222,69.93125,-51.64304,-999.00,-999.00,-999.0,no,no,no,4434878,SPIT,USIABP,ICE-PPR<br>DiskoBay,North
2021-08-18T17:49:03Z,1629308943,2021,17,49,230.7424,230.7424,69.94951,-51.9212,-999.00,-999.00,-999.0,no,no,no,4434878,SPIT,USIABP,ICE-PPR<br>DiskoBay,North
2021-08-18T19:49:00Z,1629316140,2021,19,49,230.8257,230.8257,69.94956,-51.97932,-999.00,-999.00,-999.0,no,no,no,4434878,SPIT,USIABP,ICE-PPR<br>DiskoBay,North
2021-08-18T20:18:57Z,1629317938,2021,20,19,230.8465,230.8465,69.94952,-51.99666,-999.00,-999.00,-999.0,no,no,no,4434878,SPIT,USIABP,ICE-PPR<br>DiskoBay,North
2021-08-18T20:49:03Z,1629319743,2021,20,49,230.8674,230.8674,69.94965,-52.01486,-999.00,-999.00,-999.0,no,no,no,4434878,SPIT,USIABP,ICE-PPR<br>DiskoBay,North
2021-08-18T21:47:57Z,1629323277,2021,21,48,230.9083,230.9083,69.95061,-52.05329,-999.00,-999.00,-999.0,no,no,no,4434878,SPIT,USIABP,ICE-PPR<br>DiskoBay,North
2021-08-18T22:18:02Z,1629325083,2021,22,18,230.9292,230.9292,69.95108,-52.07337,-999.00,-999.00,-999.0,no,no,no,4434878,SPIT,USIABP,ICE-PPR<br>DiskoBay,North
2021-08-18T22:48:00Z,1629326880,2021,22,48,230.95,230.95,69.95171,-52.09311,-999.00,-999.00,-999.0,no,no,no,4434878,SPIT,USIABP,ICE-PPR<br>DiskoBay,North
2021-08-18T23:18:57Z,1629328738,2021,23,19,230.9715,230.9715,69.95283,-52.11371,-999.00,-999.00,-999.0,no,no,no,4434878,SPIT,USIABP,ICE-PPR<br>DiskoBay,North
2021-08-19T01:48:00Z,1629337680,2021,1,48,231.075,231.075,69.95591,-52.19909,-999.00,-999.00,-999.0,no,no,no,4434878,SPIT,USIABP,ICE-PPR<br>DiskoBay,North
2021-08-19T02:17:57Z,1629339477,2021,2,18,231.0958,231.0958,69.95681,-52.21402,-999.00,-999.00,-999.0,no,no,no,4434878,SPIT,USIABP,ICE-PPR<br>DiskoBay,North
2021-08-19T02:47:02Z,1629341222,2021,2,47,231.116,231.116,69.95766,-52.22729,-999.00,-999.00,-999.0,no,no,no,4434878,SPIT,USIABP,ICE-PPR<br>DiskoBay,North
2021-08-19T03:16:59Z,1629343020,2021,3,17,231.1368,231.1368,69.95881,-52.24004,-999.00,-999.00,-999.0,no,no,no,4434878,SPIT,USIABP,ICE-PPR<br>DiskoBay,North
2021-08-19T03:46:56Z,1629344817,2021,3,47,231.1576,231.1576,69.96023,-52.25043,-999.00,-999.00,-999.0,no,no,no,4434878,SPIT,USIABP,ICE-PPR<br>DiskoBay,North
2021-08-19T04:17:02Z,1629346622,2021,4,17,231.1785,231.1785,69.96225,-52.25912,-999.00,-999.00,-999.0,no,no,no,4434878,SPIT,USIABP,ICE-PPR<br>DiskoBay,North
2021-08-19T05:15:56Z,1629350156,2021,5,16,231.2194,231.2194,69.96474,-52.27142,-999.00,-999.00,-999.0,no,no,no,4434878,SPIT,USIABP,ICE-PPR<br>DiskoBay,North
2021-08-19T05:46:01Z,1629351962,2021,5,46,231.2403,231.2403,69.96563,-52.27631,-999.00,-999.00,-999.0,no,no,no,4434878,SPIT,USIABP,ICE-PPR<br>DiskoBay,North
2021-08-19T06:15:59Z,1629353759,2021,6,16,231.2611,231.2611,69.96651,-52.28007,-999.00,-999.00,-999.0,no,no,no,4434878,SPIT,USIABP,ICE-PPR<br>DiskoBay,North
2021-08-19T06:45:56Z,1629355556,2021,6,46,231.2819,231.2819,69.96711,-52.28282,-999.00,-999.00,-999.0,no,no,no,4434878,SPIT,USIABP,ICE-PPR<br>DiskoBay,North
2021-08-19T07:16:01Z,1629357362,2021,7,16,231.3028,231.3028,69.96758,-52.28677,-999.00,-999.00,-999.0,no,no,no,4434878,SPIT,USIABP,ICE-PPR<br>DiskoBay,North
2021-08-19T07:45:59Z,1629359159,2021,7,46,231.3236,231.3236,69.96831,-52.29135,-999.00,-999.00,-999.0,no,no,no,4434878,SPIT,USIABP,ICE-PPR<br>DiskoBay,North
2021-08-19T08:46:01Z,1629362762,2021,8,46,231.3653,231.3653,69.96897,-52.3041,-999.00,-999.00,-999.0,no,no,no,4434878,SPIT,USIABP,ICE-PPR<br>DiskoBay,North
2021-08-19T09:15:59Z,1629364559,2021,9,16,231.3861,231.3861,69.96953,-52.3132,-999.00,-999.00,-999.0,no,no,no,4434878,SPIT,USIABP,ICE-PPR<br>DiskoBay,North
2021-08-19T09:45:56Z,1629366356,2021,9,46,231.4069,231.4069,69.97033,-52.3237,-999.00,-999.00,-999.0,no,no,no,4434878,SPIT,USIABP,ICE-PPR<br>DiskoBay,North
2021-08-19T10:16:01Z,1629368162,2021,10,16,231.4278,231.4278,69.97119,-52.33554,-999.00,-999.00,-999.0,no,no,no,4434878,SPIT,USIABP,ICE-PPR<br>DiskoBay,North
2021-08-19T10:44:58Z,1629369899,2021,10,45,231.4479,231.4479,69.97226,-52.34781,-999.00,-999.00,-999.0,no,no,no,4434878,SPIT,USIABP,ICE-PPR<br>DiskoBay,North
2021-08-19T11:15:56Z,1629371756,2021,11,16,231.4694,231.4694,69.97346,-52.36105,-999.00,-999.00,-999.0,no,no,no,4434878,SPIT,USIABP,ICE-PPR<br>DiskoBay,North
2021-08-19T11:45:01Z,1629373501,2021,11,45,231.4896,231.4896,69.97463,-52.37411,-999.00,-999.00,-999.0,no,no,no,4434878,SPIT,USIABP,ICE-PPR<br>DiskoBay,North
2021-08-19T12:14:58Z,1629375299,2021,12,15,231.5104,231.5104,69.97596,-52.3877,-999.00,-999.00,-999.0,no,no,no,4434878,SPIT,USIABP,ICE-PPR<br>DiskoBay,North
2021-08-19T12:44:55Z,1629377096,2021,12,45,231.5312,231.5312,69.97725,-52.40143,-999.00,-999.00,-999.0,no,no,no,4434878,SPIT,USIABP,ICE-PPR<br>DiskoBay,North
2021-08-19T13:15:01Z,1629378901,2021,13,15,231.5521,231.5521,69.97882,-52.41486,-999.00,-999.00,-999.0,no,no,no,4434878,SPIT,USIABP,ICE-PPR<br>DiskoBay,North
2021-08-19T13:44:58Z,1629380699,2021,13,45,231.5729,231.5729,69.98054,-52.42688,-999.00,-999.00,-999.0,no,no,no,4434878,SPIT,USIABP,ICE-PPR<br>DiskoBay,North
2021-08-19T14:15:04Z,1629382504,2021,14,15,231.5938,231.5938,69.9823,-52.4389,-999.00,-999.00,-999.0,no,no,no,4434878,SPIT,USIABP,ICE-PPR<br>DiskoBay,North
2021-08-19T14:45:01Z,1629384301,2021,14,45,231.6146,231.6146,69.98402,-52.45023,-999.00,-999.00,-999.0,no,no,no,4434878,SPIT,USIABP,ICE-PPR<br>DiskoBay,North
2021-08-19T17:44:00Z,1629395041,2021,17,44,231.7389,231.7389,69.98893,-52.48673,-999.00,-999.00,-999.0,no,no,no,4434878,SPIT,USIABP,ICE-PPR<br>DiskoBay,North
2021-08-19T18:13:58Z,1629396838,2021,18,14,231.7597,231.7597,69.98851,-52.49106,-999.00,-999.00,-999.0,no,no,no,4434878,SPIT,USIABP,ICE-PPR<br>DiskoBay,North
2021-08-19T18:44:03Z,1629398644,2021,18,44,231.7806,231.7806,69.98837,-52.49609,-999.00,-999.00,-999.0,no,no,no,4434878,SPIT,USIABP,ICE-PPR<br>DiskoBay,North
2021-08-19T22:14:00Z,1629411241,2021,22,14,231.9264,231.9264,69.99757,-52.55975,-999.00,-999.00,-999.0,no,no,no,4434878,SPIT,USIABP,ICE-PPR<br>DiskoBay,North
2021-08-19T22:42:57Z,1629412978,2021,22,43,231.9465,231.9465,70.00049,-52.57251,-999.00,-999.00,-999.0,no,no,no,4434878,SPIT,USIABP,ICE-PPR<br>DiskoBay,North
2021-08-19T23:13:03Z,1629414783,2021,23,13,231.9674,231.9674,70.00379,-52.58607,-999.00,-999.00,-999.0,no,no,no,4434878,SPIT,USIABP,ICE-PPR<br>DiskoBay,North
2021-08-19T23:43:00Z,1629416580,2021,23,43,231.9882,231.9882,70.00688,-52.59946,-999.00,-999.00,-999.0,no,no,no,4434878,SPIT,USIABP,ICE-PPR<br>DiskoBay,North
2021-08-20T00:12:57Z,1629418378,2021,0,13,232.009,232.009,70.00972,-52.61328,-999.00,-999.00,-999.0,no,no,no,4434878,SPIT,USIABP,ICE-PPR<br>DiskoBay,North
2021-08-20T01:12:00Z,1629421920,2021,1,12,232.05,232.05,70.01553,-52.63987,-999.00,-999.00,-999.0,no,no,no,4434878,SPIT,USIABP,ICE-PPR<br>DiskoBay,North
2021-08-20T01:41:57Z,1629423717,2021,1,42,232.0708,232.0708,70.01849,-52.65137,-999.00,-999.00,-999.0,no,no,no,4434878,SPIT,USIABP,ICE-PPR<br>DiskoBay,North
2021-08-20T02:13:03Z,1629425583,2021,2,13,232.0924,232.0924,70.02149,-52.66171,-999.00,-999.00,-999.0,no,no,no,4434878,SPIT,USIABP,ICE-PPR<br>DiskoBay,North
2021-08-20T02:42:00Z,1629427320,2021,2,42,232.1125,232.1125,70.02415,-52.67053,-999.00,-999.00,-999.0,no,no,no,4434878,SPIT,USIABP,ICE-PPR<br>DiskoBay,North
2021-08-20T03:11:57Z,1629429117,2021,3,12,232.1333,232.1333,70.02656,-52.67825,-999.00,-999.00,-999.0,no,no,no,4434878,SPIT,USIABP,ICE-PPR<br>DiskoBay,North
2021-08-20T03:42:02Z,1629430923,2021,3,42,232.1542,232.1542,70.02867,-52.68451,-999.00,-999.00,-999.0,no,no,no,4434878,SPIT,USIABP,ICE-PPR<br>DiskoBay,North
2021-08-20T04:13:00Z,1629432780,2021,4,13,232.1757,232.1757,70.03046,-52.68976,-999.00,-999.00,-999.0,no,no,no,4434878,SPIT,USIABP,ICE-PPR<br>DiskoBay,North
2021-08-20T04:41:57Z,1629434517,2021,4,42,232.1958,232.1958,70.0318,-52.69405,-999.00,-999.00,-999.0,no,no,no,4434878,SPIT,USIABP,ICE-PPR<br>DiskoBay,North
2021-08-20T05:12:02Z,1629436323,2021,5,12,232.2167,232.2167,70.03252,-52.69662,-999.00,-999.00,-999.0,no,no,no,4434878,SPIT,USIABP,ICE-PPR<br>DiskoBay,North
2021-08-20T11:11:02Z,1629457862,2021,11,11,232.466,232.466,70.03807,-52.72501,-999.00,-999.00,-999.0,no,no,no,4434878,SPIT,USIABP,ICE-PPR<br>DiskoBay,North
2021-08-20T12:41:02Z,1629463262,2021,12,41,232.5285,232.5285,70.04558,-52.74072,-999.00,-999.00,-999.0,no,no,no,4434878,SPIT,USIABP,ICE-PPR<br>DiskoBay,North
2021-08-20T13:10:59Z,1629465060,2021,13,11,232.5493,232.5493,70.04756,-52.74579,-999.00,-999.00,-999.0,no,no,no,4434878,SPIT,USIABP,ICE-PPR<br>DiskoBay,North
2021-08-20T13:39:56Z,1629466796,2021,13,40,232.5694,232.5694,70.04819,-52.74905,-999.00,-999.00,-999.0,no,no,no,4434878,SPIT,USIABP,ICE-PPR<br>DiskoBay,North
2021-08-20T14:39:59Z,1629470399,2021,14,40,232.6111,232.6111,70.05037,-52.75812,-999.00,-999.00,-999.0,no,no,no,4434878,SPIT,USIABP,ICE-PPR<br>DiskoBay,North
2021-08-20T18:09:56Z,1629482996,2021,18,10,232.7569,232.7569,70.0507,-52.77814,-999.00,-999.00,-999.0,no,no,no,4434878,SPIT,USIABP,ICE-PPR<br>DiskoBay,North
2021-08-20T18:39:01Z,1629484741,2021,18,39,232.7771,232.7771,70.05032,-52.78098,-999.00,-999.00,-999.0,no,no,no,4434878,SPIT,USIABP,ICE-PPR<br>DiskoBay,North
2021-08-20T19:08:58Z,1629486539,2021,19,9,232.7979,232.7979,70.05024,-52.7844,-999.00,-999.00,-999.0,no,no,no,4434878,SPIT,USIABP,ICE-PPR<br>DiskoBay,North
2021-08-20T19:38:55Z,1629488336,2021,19,39,232.8187,232.8187,70.0505,-52.78809,-999.00,-999.00,-999.0,no,no,no,4434878,SPIT,USIABP,ICE-PPR<br>DiskoBay,North
2021-08-20T20:09:01Z,1629490141,2021,20,9,232.8396,232.8396,70.05145,-52.7916,-999.00,-999.00,-999.0,no,no,no,4434878,SPIT,USIABP,ICE-PPR<br>DiskoBay,North
2021-08-20T20:38:58Z,1629491939,2021,20,39,232.8604,232.8604,70.05324,-52.79459,-999.00,-999.00,-999.0,no,no,no,4434878,SPIT,USIABP,ICE-PPR<br>DiskoBay,North
2021-08-20T21:08:55Z,1629493736,2021,21,9,232.8812,232.8812,70.05539,-52.79708,-999.00,-999.00,-999.0,no,no,no,4434878,SPIT,USIABP,ICE-PPR<br>DiskoBay,North
2021-08-20T21:39:01Z,1629495541,2021,21,39,232.9021,232.9021,70.05795,-52.80008,-999.00,-999.00,-999.0,no,no,no,4434878,SPIT,USIABP,ICE-PPR<br>DiskoBay,North
2021-08-20T22:08:58Z,1629497339,2021,22,9,232.9229,232.9229,70.06126,-52.80356,-999.00,-999.00,-999.0,no,no,no,4434878,SPIT,USIABP,ICE-PPR<br>DiskoBay,North
2021-08-20T22:38:03Z,1629499084,2021,22,38,232.9431,232.9431,70.06465,-52.80885,-999.00,-999.00,-999.0,no,no,no,4434878,SPIT,USIABP,ICE-PPR<br>DiskoBay,North
2021-08-20T23:08:00Z,1629500881,2021,23,8,232.9639,232.9639,70.068,-52.81537,-999.00,-999.00,-999.0,no,no,no,4434878,SPIT,USIABP,ICE-PPR<br>DiskoBay,North
2021-08-20T23:37:58Z,1629502678,2021,23,38,232.9847,232.9847,70.07195,-52.82309,-999.00,-999.00,-999.0,no,no,no,4434878,SPIT,USIABP,ICE-PPR<br>DiskoBay,North
2021-08-21T00:08:03Z,1629504484,2021,0,8,233.0056,233.0056,70.07632,-52.83151,-999.00,-999.00,-999.0,no,no,no,4434878,SPIT,USIABP,ICE-PPR<br>DiskoBay,North
2021-08-21T00:38:00Z,1629506281,2021,0,38,233.0264,233.0264,70.08073,-52.84004,-999.00,-999.00,-999.0,no,no,no,4434878,SPIT,USIABP,ICE-PPR<br>DiskoBay,North
2021-08-21T01:07:58Z,1629508078,2021,1,8,233.0472,233.0472,70.08519,-52.84948,-999.00,-999.00,-999.0,no,no,no,4434878,SPIT,USIABP,ICE-PPR<br>DiskoBay,North
2021-08-21T01:38:03Z,1629509884,2021,1,38,233.0681,233.0681,70.08897,-52.85901,-999.00,-999.00,-999.0,no,no,no,4434878,SPIT,USIABP,ICE-PPR<br>DiskoBay,North
2021-08-21T05:36:57Z,1629524218,2021,5,37,233.234,233.234,70.10173,-52.90445,-999.00,-999.00,-999.0,no,no,no,4434878,SPIT,USIABP,ICE-PPR<br>DiskoBay,North
2021-08-21T07:06:57Z,1629529618,2021,7,7,233.2965,233.2965,70.09926,-52.90163,-999.00,-999.00,-999.0,no,no,no,4434878,SPIT,USIABP,ICE-PPR<br>DiskoBay,North
2021-08-21T07:37:03Z,1629531423,2021,7,37,233.3174,233.3174,70.09869,-52.89923,-999.00,-999.00,-999.0,no,no,no,4434878,SPIT,USIABP,ICE-PPR<br>DiskoBay,North
2021-08-21T08:07:00Z,1629533220,2021,8,7,233.3382,233.3382,70.09801,-52.89597,-999.00,-999.00,-999.0,no,no,no,4434878,SPIT,USIABP,ICE-PPR<br>DiskoBay,North
2021-08-21T08:35:57Z,1629534957,2021,8,36,233.3583,233.3583,70.0976,-52.89223,-999.00,-999.00,-999.0,no,no,no,4434878,SPIT,USIABP,ICE-PPR<br>DiskoBay,North
2021-08-21T09:06:02Z,1629536763,2021,9,6,233.3792,233.3792,70.09747,-52.88794,-999.00,-999.00,-999.0,no,no,no,4434878,SPIT,USIABP,ICE-PPR<br>DiskoBay,North
2021-08-21T09:36:00Z,1629538560,2021,9,36,233.4,233.4,70.09689,-52.884,-999.00,-999.00,-999.0,no,no,no,4434878,SPIT,USIABP,ICE-PPR<br>DiskoBay,North
2021-08-21T10:05:57Z,1629540357,2021,10,6,233.4208,233.4208,70.09638,-52.88263,-999.00,-999.00,-999.0,no,no,no,4434878,SPIT,USIABP,ICE-PPR<br>DiskoBay,North
2021-08-21T10:36:02Z,1629542163,2021,10,36,233.4417,233.4417,70.09604,-52.88306,-999.00,-999.00,-999.0,no,no,no,4434878,SPIT,USIABP,ICE-PPR<br>DiskoBay,North
2021-08-21T11:06:00Z,1629543960,2021,11,6,233.4625,233.4625,70.09462,-52.88403,-999.00,-999.00,-999.0,no,no,no,4434878,SPIT,USIABP,ICE-PPR<br>DiskoBay,North
2021-08-21T11:34:56Z,1629545697,2021,11,35,233.4826,233.4826,70.09437,-52.88788,-999.00,-999.00,-999.0,no,no,no,4434878,SPIT,USIABP,ICE-PPR<br>DiskoBay,North
2021-08-21T12:05:02Z,1629547502,2021,12,5,233.5035,233.5035,70.0942,-52.89148,-999.00,-999.00,-999.0,no,no,no,4434878,SPIT,USIABP,ICE-PPR<br>DiskoBay,North
2021-08-21T12:34:59Z,1629549300,2021,12,35,233.5243,233.5243,70.09484,-52.89603,-999.00,-999.00,-999.0,no,no,no,4434878,SPIT,USIABP,ICE-PPR<br>DiskoBay,North
2021-08-21T13:04:56Z,1629551097,2021,13,5,233.5451,233.5451,70.09592,-52.90002,-999.00,-999.00,-999.0,no,no,no,4434878,SPIT,USIABP,ICE-PPR<br>DiskoBay,North
2021-08-21T13:35:02Z,1629552902,2021,13,35,233.566,233.566,70.09675,-52.90433,-999.00,-999.00,-999.0,no,no,no,4434878,SPIT,USIABP,ICE-PPR<br>DiskoBay,North
2021-08-21T14:04:59Z,1629554700,2021,14,5,233.5868,233.5868,70.09774,-52.90939,-999.00,-999.00,-999.0,no,no,no,4434878,SPIT,USIABP,ICE-PPR<br>DiskoBay,North
2021-08-21T15:05:02Z,1629558302,2021,15,5,233.6285,233.6285,70.10032,-52.91993,-999.00,-999.00,-999.0,no,no,no,4434878,SPIT,USIABP,ICE-PPR<br>DiskoBay,North
2021-08-21T15:34:59Z,1629560100,2021,15,35,233.6493,233.6493,70.10131,-52.92474,-999.00,-999.00,-999.0,no,no,no,4434878,SPIT,USIABP,ICE-PPR<br>DiskoBay,North
2021-08-21T16:04:56Z,1629561897,2021,16,5,233.6701,233.6701,70.10213,-52.92886,-999.00,-999.00,-999.0,no,no,no,4434878,SPIT,USIABP,ICE-PPR<br>DiskoBay,North
2021-08-21T18:04:01Z,1629569042,2021,18,4,233.7528,233.7528,70.10193,-52.93387,-999.00,-999.00,-999.0,no,no,no,4434878,SPIT,USIABP,ICE-PPR<br>DiskoBay,North
2021-08-22T01:02:03Z,1629594124,2021,1,2,234.0431,234.0431,70.12127,-52.97064,-999.00,-999.00,-999.0,no,no,no,4434878,SPIT,USIABP,ICE-PPR<br>DiskoBay,North
2021-08-22T05:31:03Z,1629610263,2021,5,31,234.2299,234.2299,70.13754,-53.02106,-999.00,-999.00,-999.0,no,no,no,4434878,SPIT,USIABP,ICE-PPR<br>DiskoBay,North
2021-08-22T06:00:00Z,1629612000,2021,6,0,234.25,234.25,70.13688,-53.01907,-999.00,-999.00,-999.0,no,no,no,4434878,SPIT,USIABP,ICE-PPR<br>DiskoBay,North
2021-08-22T06:29:57Z,1629613797,2021,6,30,234.2708,234.2708,70.13567,-53.01469,-999.00,-999.00,-999.0,no,no,no,4434878,SPIT,USIABP,ICE-PPR<br>DiskoBay,North
2021-08-22T07:00:02Z,1629615603,2021,7,0,234.2917,234.2917,70.1337,-53.00937,-999.00,-999.00,-999.0,no,no,no,4434878,SPIT,USIABP,ICE-PPR<br>DiskoBay,North
2021-08-22T07:30:00Z,1629617400,2021,7,30,234.3125,234.3125,70.13137,-53.00336,-999.00,-999.00,-999.0,no,no,no,4434878,SPIT,USIABP,ICE-PPR<br>DiskoBay,North
2021-08-22T07:59:57Z,1629619197,2021,8,0,234.3333,234.3333,70.12862,-52.99821,-999.00,-999.00,-999.0,no,no,no,4434878,SPIT,USIABP,ICE-PPR<br>DiskoBay,North
2021-08-22T08:30:02Z,1629621003,2021,8,30,234.3542,234.3542,70.12605,-52.99426,-999.00,-999.00,-999.0,no,no,no,4434878,SPIT,USIABP,ICE-PPR<br>DiskoBay,North
2021-08-22T10:28:59Z,1629628140,2021,10,29,234.4368,234.4368,70.12179,-52.98868,-999.00,-999.00,-999.0,no,no,no,4434878,SPIT,USIABP,ICE-PPR<br>DiskoBay,North
2021-08-22T13:58:56Z,1629640737,2021,13,59,234.5826,234.5826,70.12315,-52.98883,-999.00,-999.00,-999.0,no,no,no,4434878,SPIT,USIABP,ICE-PPR<br>DiskoBay,North
2021-08-22T17:28:01Z,1629653282,2021,17,28,234.7278,234.7278,70.13154,-53.00928,-999.00,-999.00,-999.0,no,no,no,4434878,SPIT,USIABP,ICE-PPR<br>DiskoBay,North
2021-08-22T20:56:58Z,1629665819,2021,20,57,234.8729,234.8729,70.12808,-53.00653,-999.00,-999.00,-999.0,no,no,no,4434878,SPIT,USIABP,ICE-PPR<br>DiskoBay,North
2021-08-22T21:27:04Z,1629667624,2021,21,27,234.8938,234.8938,70.12882,-53.00839,-999.00,-999.00,-999.0,no,no,no,4434878,SPIT,USIABP,ICE-PPR<br>DiskoBay,North
2021-08-22T21:57:01Z,1629669421,2021,21,57,234.9146,234.9146,70.1302,-53.01122,-999.00,-999.00,-999.0,no,no,no,4434878,SPIT,USIABP,ICE-PPR<br>DiskoBay,North
2021-08-22T22:26:58Z,1629671219,2021,22,27,234.9354,234.9354,70.13213,-53.01474,-999.00,-999.00,-999.0,no,no,no,4434878,SPIT,USIABP,ICE-PPR<br>DiskoBay,North